Time,TemperatureF,DewpointF,PressureIn,WindDirection,WindDirectionDegrees,WindSpeedMPH,WindSpeedGustMPH,Humidity,HourlyPrecipIn,Conditions,Clouds,dailyrainin,SolarRadiationWatts/m^2,SoftwareType,DateUTC
2013-08-17 00:13:00,59.0,55.0,-100.00,NE,50,2.0,4.0,88,0.00,,,0.00,0.000000,,2013-08-17 04:13:00,
2013-08-17 00:23:00,59.0,55.0,-100.00,NE,50,2.0,4.0,88,0.00,,,0.00,0.000000,,2013-08-17 04:23:00,
2013-08-17 00:32:00,59.0,55.0,-100.00,NE,50,2.0,4.0,88,0.00,,,0.00,0.000000,,2013-08-17 04:32:00,
2013-08-17 00:44:00,59.0,55.0,-100.00,NE,50,2.0,4.0,88,0.00,,,0.00,0.000000,,2013-08-17 04:44:00,
2013-08-17 01:13:00,56.0,55.0,-100.00,NE,38,1.0,3.0,96,0.00,,,0.00,0.000000,,2013-08-17 05:13:00,
2013-08-17 01:23:00,56.0,55.0,-100.00,NE,38,1.0,3.0,96,0.00,,,0.00,0.000000,,2013-08-17 05:23:00,
2013-08-17 01:32:00,56.0,55.0,-100.00,NE,38,1.0,3.0,96,0.00,,,0.00,0.000000,,2013-08-17 05:32:00,
2013-08-17 01:42:00,56.0,55.0,-100.00,NE,38,1.0,3.0,96,0.00,,,0.00,0.000000,,2013-08-17 05:42:00,
2013-08-17 02:12:00,57.0,54.0,-100.00,NNE,16,0.0,4.0,91,0.00,,,0.00,0.000000,,2013-08-17 06:12:00,
2013-08-17 02:21:00,57.0,54.0,-100.00,NNE,16,0.0,4.0,91,0.00,,,0.00,0.000000,,2013-08-17 06:21:00,
2013-08-17 02:32:00,57.0,54.0,-100.00,NNE,16,0.0,4.0,91,0.00,,,0.00,0.000000,,2013-08-17 06:32:00,
2013-08-17 02:42:00,57.0,54.0,-100.00,NNE,16,0.0,4.0,91,0.00,,,0.00,0.000000,,2013-08-17 06:42:00,
2013-08-17 03:11:00,57.0,55.0,-100.00,North,9,2.0,3.0,93,0.00,,,0.00,0.000000,,2013-08-17 07:11:00,
2013-08-17 03:22:00,57.0,55.0,-100.00,North,9,2.0,3.0,93,0.00,,,0.00,0.000000,,2013-08-17 07:22:00,
2013-08-17 03:32:00,57.0,55.0,-100.00,North,9,2.0,3.0,93,0.00,,,0.00,0.000000,,2013-08-17 07:32:00,
2013-08-17 03:42:00,57.0,55.0,-100.00,North,9,2.0,3.0,93,0.00,,,0.00,0.000000,,2013-08-17 07:42:00,
2013-08-17 04:11:00,57.0,54.0,-100.00,NE,48,1.0,3.0,90,0.00,,,0.00,0.000000,,2013-08-17 08:11:00,
2013-08-17 04:21:00,57.0,54.0,-100.00,NE,48,1.0,3.0,90,0.00,,,0.00,0.000000,,2013-08-17 08:21:00,
2013-08-17 04:33:00,57.0,54.0,-100.00,NE,48,1.0,3.0,90,0.00,,,0.00,0.000000,,2013-08-17 08:33:00,
2013-08-17 04:42:00,57.0,54.0,-100.00,NE,48,1.0,3.0,90,0.00,,,0.00,0.000000,,2013-08-17 08:42:00,
2013-08-17 05:11:00,56.0,53.0,-100.00,NNE,31,2.0,3.0,91,0.00,,,0.00,0.000000,,2013-08-17 09:11:00,
2013-08-17 05:22:00,56.0,53.0,-100.00,NNE,31,2.0,3.0,91,0.00,,,0.00,0.000000,,2013-08-17 09:22:00,
2013-08-17 05:33:00,56.0,53.0,-100.00,NNE,31,2.0,3.0,91,0.00,,,0.00,0.000000,,2013-08-17 09:33:00,
2013-08-17 05:43:00,56.0,53.0,-100.00,NNE,31,2.0,3.0,91,0.00,,,0.00,0.000000,,2013-08-17 09:43:00,
2013-08-17 06:13:00,58.0,54.0,-100.00,ENE,59,2.0,5.0,87,0.00,,,0.00,0.000000,,2013-08-17 10:13:00,
2013-08-17 06:23:00,58.0,54.0,-100.00,ENE,59,2.0,5.0,87,0.00,,,0.00,0.000000,,2013-08-17 10:23:00,
2013-08-17 06:32:00,58.0,54.0,-100.00,ENE,59,2.0,5.0,87,0.00,,,0.00,0.000000,,2013-08-17 10:32:00,
2013-08-17 06:42:00,58.0,54.0,-100.00,ENE,59,2.0,5.0,87,0.00,,,0.00,0.000000,,2013-08-17 10:42:00,
2013-08-17 07:12:00,58.0,54.0,-100.00,NE,46,2.0,4.0,88,0.00,,,0.00,0.000000,,2013-08-17 11:12:00,
2013-08-17 07:22:00,58.0,54.0,-100.00,NE,46,2.0,4.0,88,0.00,,,0.00,0.000000,,2013-08-17 11:22:00,
2013-08-17 07:32:00,58.0,54.0,-100.00,NE,46,2.0,4.0,88,0.00,,,0.00,0.000000,,2013-08-17 11:32:00,
2013-08-17 07:42:00,58.0,54.0,-100.00,NE,46,2.0,4.0,88,0.00,,,0.00,0.000000,,2013-08-17 11:42:00,
2013-08-17 08:12:00,59.0,55.0,-100.00,East,88,2.0,5.0,86,0.00,,,0.00,19.000000,,2013-08-17 12:12:00,
2013-08-17 08:21:00,59.0,55.0,-100.00,East,88,2.0,5.0,86,0.00,,,0.00,19.000000,,2013-08-17 12:21:00,
2013-08-17 08:32:00,59.0,55.0,-100.00,East,88,2.0,5.0,86,0.00,,,0.00,19.000000,,2013-08-17 12:32:00,
2013-08-17 08:42:00,59.0,55.0,-100.00,East,88,2.0,5.0,86,0.00,,,0.00,19.000000,,2013-08-17 12:42:00,
2013-08-17 09:11:00,63.0,58.0,-100.00,ENE,66,3.0,6.0,84,0.00,,,0.00,127.000000,,2013-08-17 13:11:00,
2013-08-17 09:22:00,63.0,58.0,-100.00,ENE,66,3.0,6.0,84,0.00,,,0.00,127.000000,,2013-08-17 13:22:00,
2013-08-17 09:32:00,63.0,58.0,-100.00,ENE,66,3.0,6.0,84,0.00,,,0.00,127.000000,,2013-08-17 13:32:00,
2013-08-17 09:42:00,63.0,58.0,-100.00,ENE,66,3.0,6.0,84,0.00,,,0.00,127.000000,,2013-08-17 13:42:00,
2013-08-17 10:11:00,66.0,58.0,-100.00,ESE,103,3.0,8.0,76,0.00,,,0.00,215.000000,,2013-08-17 14:11:00,
2013-08-17 10:21:00,66.0,58.0,-100.00,ESE,103,3.0,8.0,76,0.00,,,0.00,215.000000,,2013-08-17 14:21:00,
2013-08-17 10:32:00,66.0,58.0,-100.00,ESE,103,3.0,8.0,76,0.00,,,0.00,215.000000,,2013-08-17 14:32:00,
2013-08-17 10:42:00,66.0,58.0,-100.00,ESE,103,3.0,8.0,76,0.00,,,0.00,215.000000,,2013-08-17 14:42:00,
2013-08-17 11:12:00,71.0,58.0,-100.00,ENE,75,5.0,9.0,64,0.00,,,0.00,666.000000,,2013-08-17 15:12:00,
2013-08-17 11:22:00,71.0,58.0,-100.00,ENE,75,5.0,9.0,64,0.00,,,0.00,666.000000,,2013-08-17 15:22:00,
2013-08-17 11:33:00,71.0,58.0,-100.00,ENE,75,5.0,9.0,64,0.00,,,0.00,666.000000,,2013-08-17 15:33:00,
2013-08-17 11:44:00,71.0,58.0,-100.00,ENE,75,5.0,9.0,64,0.00,,,0.00,666.000000,,2013-08-17 15:44:00,
2013-08-17 12:23:00,76.0,60.0,-100.00,ENE,57,6.0,9.0,57,0.00,,,0.00,795.000000,,2013-08-17 16:23:00,
2013-08-17 12:33:00,76.0,60.0,-100.00,ENE,57,6.0,9.0,57,0.00,,,0.00,795.000000,,2013-08-17 16:33:00,
2013-08-17 12:42:00,76.0,60.0,-100.00,ENE,57,6.0,9.0,57,0.00,,,0.00,795.000000,,2013-08-17 16:42:00,
2013-08-17 13:12:00,78.0,58.0,-100.00,East,96,7.0,10.0,51,0.00,,,0.00,897.000000,,2013-08-17 17:12:00,
2013-08-17 13:23:00,78.0,58.0,-100.00,East,96,7.0,10.0,51,0.00,,,0.00,897.000000,,2013-08-17 17:23:00,
2013-08-17 13:33:00,78.0,58.0,-100.00,East,96,7.0,10.0,51,0.00,,,0.00,897.000000,,2013-08-17 17:33:00,
2013-08-17 13:42:00,78.0,58.0,-100.00,East,96,7.0,10.0,51,0.00,,,0.00,897.000000,,2013-08-17 17:42:00,
2013-08-17 14:21:00,79.0,55.0,-100.00,East,99,7.0,11.0,44,0.00,,,0.00,982.000000,,2013-08-17 18:21:00,
2013-08-17 14:32:00,79.0,55.0,-100.00,East,99,7.0,11.0,44,0.00,,,0.00,982.000000,,2013-08-17 18:32:00,
2013-08-17 15:11:00,80.0,59.0,-100.00,East,79,5.0,10.0,49,0.00,,,0.00,891.000000,,2013-08-17 19:11:00,
2013-08-17 15:21:00,80.0,59.0,-100.00,East,79,5.0,10.0,49,0.00,,,0.00,891.000000,,2013-08-17 19:21:00,
2013-08-17 15:32:00,80.0,59.0,-100.00,East,79,5.0,10.0,49,0.00,,,0.00,891.000000,,2013-08-17 19:32:00,
2013-08-17 15:42:00,80.0,59.0,-100.00,East,79,5.0,10.0,49,0.00,,,0.00,891.000000,,2013-08-17 19:42:00,
2013-08-17 16:11:00,81.0,57.0,-100.00,NNE,29,4.0,10.0,44,0.00,,,0.00,851.000000,,2013-08-17 20:11:00,
2013-08-17 16:21:00,81.0,57.0,-100.00,NNE,29,4.0,10.0,44,0.00,,,0.00,851.000000,,2013-08-17 20:21:00,
2013-08-17 16:32:00,81.0,57.0,-100.00,NNE,29,4.0,10.0,44,0.00,,,0.00,851.000000,,2013-08-17 20:32:00,
2013-08-17 16:42:00,81.0,57.0,-100.00,NNE,29,4.0,10.0,44,0.00,,,0.00,851.000000,,2013-08-17 20:42:00,
2013-08-17 17:11:00,81.0,58.0,-100.00,East,99,5.0,9.0,46,0.00,,,0.00,796.000000,,2013-08-17 21:11:00,
2013-08-17 17:22:00,81.0,58.0,-100.00,East,99,5.0,9.0,46,0.00,,,0.00,796.000000,,2013-08-17 21:22:00,
2013-08-17 17:33:00,81.0,58.0,-100.00,East,99,5.0,9.0,46,0.00,,,0.00,796.000000,,2013-08-17 21:33:00,
2013-08-17 17:42:00,81.0,58.0,-100.00,East,99,5.0,9.0,46,0.00,,,0.00,796.000000,,2013-08-17 21:42:00,
2013-08-17 18:13:00,80.0,57.0,-100.00,ENE,74,4.0,8.0,46,0.00,,,0.00,442.000000,,2013-08-17 22:13:00,
2013-08-17 18:23:00,80.0,57.0,-100.00,ENE,74,4.0,8.0,46,0.00,,,0.00,442.000000,,2013-08-17 22:23:00,
2013-08-17 18:33:00,80.0,57.0,-100.00,ENE,74,4.0,8.0,46,0.00,,,0.00,442.000000,,2013-08-17 22:33:00,
2013-08-17 18:42:00,80.0,57.0,-100.00,ENE,74,4.0,8.0,46,0.00,,,0.00,442.000000,,2013-08-17 22:42:00,
2013-08-17 19:11:00,78.0,61.0,-100.00,ENE,68,3.0,6.0,55,0.00,,,0.00,224.000000,,2013-08-17 23:11:00,
2013-08-17 19:22:00,78.0,61.0,-100.00,ENE,68,3.0,6.0,55,0.00,,,0.00,224.000000,,2013-08-17 23:22:00,
2013-08-17 19:32:00,78.0,61.0,-100.00,ENE,68,3.0,6.0,55,0.00,,,0.00,224.000000,,2013-08-17 23:32:00,
2013-08-17 19:42:00,78.0,61.0,-100.00,ENE,68,3.0,6.0,55,0.00,,,0.00,224.000000,,2013-08-17 23:42:00,
2013-08-17 20:12:00,75.0,66.0,-100.00,NW,308,0.0,-999.0,73,0.00,,,0.00,100.000000,,2013-08-18 00:12:00,
2013-08-17 20:21:00,75.0,66.0,-100.00,NW,308,0.0,-999.0,73,0.00,,,0.00,100.000000,,2013-08-18 00:21:00,
2013-08-17 20:32:00,75.0,66.0,-100.00,NW,308,0.0,-999.0,73,0.00,,,0.00,100.000000,,2013-08-18 00:32:00,
2013-08-17 20:42:00,75.0,66.0,-100.00,NW,308,0.0,-999.0,73,0.00,,,0.00,100.000000,,2013-08-18 00:42:00,
2013-08-17 21:21:00,68.0,64.0,-100.00,NE,36,0.0,4.0,88,0.00,,,-99.99,21.000000,,2013-08-18 01:21:00,
2013-08-17 21:32:00,68.0,64.0,-100.00,NE,36,0.0,4.0,88,0.00,,,-99.99,21.000000,,2013-08-18 01:32:00,
2013-08-17 21:42:00,68.0,64.0,-100.00,NE,36,0.0,4.0,88,0.00,,,-99.99,21.000000,,2013-08-18 01:42:00,
2013-08-17 22:11:00,65.0,63.0,-100.00,NNE,24,0.0,8.0,92,0.00,,,0.00,0.000000,,2013-08-18 02:11:00,
2013-08-17 22:21:00,65.0,63.0,-100.00,NNE,24,0.0,8.0,92,0.00,,,0.00,0.000000,,2013-08-18 02:21:00,
2013-08-17 22:32:00,65.0,63.0,-100.00,NNE,24,0.0,8.0,92,0.00,,,0.00,0.000000,,2013-08-18 02:32:00,
2013-08-17 22:42:00,65.0,63.0,-100.00,NNE,24,0.0,8.0,92,0.00,,,0.00,0.000000,,2013-08-18 02:42:00,
2013-08-17 23:11:00,63.0,62.0,-100.00,SE,135,0.0,3.0,96,0.00,,,0.00,0.000000,,2013-08-18 03:11:00,
2013-08-17 23:22:00,63.0,62.0,-100.00,SE,135,0.0,3.0,96,0.00,,,0.00,0.000000,,2013-08-18 03:22:00,
2013-08-17 23:33:00,63.0,62.0,-100.00,SE,135,0.0,3.0,96,0.00,,,0.00,0.000000,,2013-08-18 03:33:00,
2013-08-17 23:43:00,63.0,62.0,-100.00,SE,135,0.0,3.0,96,0.00,,,0.00,0.000000,,2013-08-18 03:43:00,